Location: Brompton
(51.4000°N, 0.5333°E)
Time: 01:44:45
(UTC+00:00)

NOSS 2-1 (C) - Pass Details

Date: 11 May 2021
Orbit: 430 x 1771 km, 63.3° (Epoch: 26 May)

Event Time Altitude Azimuth Distance (km) Brightness Sun altitude
Rises 23:46:46 0° 315° (NW) 2,779 7.6 -20.4°
Reaches altitude 10° 23:48:43 10° 319° (NW) 2,002 6.9 -20.5°
Maximum altitude 23:53:12 67° 42° (NE) 834 4.3 -20.5°
Enters shadow 23:58:27 15° 124° (SE) 2,387 6.2 -20.5°
